Location: *
(43.2048°N, 0.1612°E)
Time: 20:48:24
(UTC+00:00)

Cosmos 1743 Rocket - Pass Details

Date: 30 September 2023
Orbit: 603 x 629 km, 82.6° (Epoch: 05 December)

Event Time Altitude Azimuth Distance (km) Brightness Sun altitude
Rises 03:54:49 0° 355° (N) 2,870 7.2 -22.4°
Reaches altitude 10° 03:57:04 10° 359° (N) 1,964 6.3 -22.0°
Maximum altitude 04:01:21 59° 79° (E) 708 4.1 -21.3°
Drops below altitude 10° 04:05:38 10° 160° (SSE) 1,962 6.2 -20.5°
Sets 04:07:53 0° 164° (SSE) 2,866 7.0 -20.2°
